Previsão horária em Abadiânia

Hoje, 17 Abril, Sábado

Tempo Temperatura Precipitação Vento Pressão Humidade
00:00 +19°C° 0 mm 1 m/s 676 mmHg 80%
01:00 +19°C° 0 mm 1 m/s 675 mmHg 80%
02:00 +19°C° 0 mm 1 m/s 675 mmHg 80%
03:00 +18°C° 0 mm 1 m/s 675 mmHg 80%
04:00 +18°C° 0 mm 1 m/s 675 mmHg 79%
05:00 +18°C° 0 mm 1 m/s 675 mmHg 79%
06:00 +18°C° 0 mm 1 m/s 675 mmHg 79%
07:00 +20°C° 0 mm 1 m/s 676 mmHg 72%
08:00 +21°C° 0 mm 2 m/s 677 mmHg 66%
09:00 +23°C° 0 mm 2 m/s 678 mmHg 59%
10:00 +25°C° 0 mm 2 m/s 677 mmHg 54%
11:00 +26°C° 0 mm 2 m/s 677 mmHg 49%
12:00 +28°C° 0 mm 2 m/s 677 mmHg 44%
13:00 +28°C° 0 mm 1 m/s 677 mmHg 44%
14:00 +29°C° 0 mm 1 m/s 676 mmHg 43%
15:00 +27°C° 0 mm 0 m/s 676 mmHg 42%
16:00 +25°C° 0 mm 0 m/s 675 mmHg 50%
17:00 +26°C° 0 mm 1 m/s 675 mmHg 58%
18:00 +24°C° 0 mm 1 m/s 675 mmHg 65%
19:00 +21°C° 0 mm 0 m/s 675 mmHg 66%
20:00 +21°C° 0 mm 0 m/s 675 mmHg 66%
21:00 +20°C° 0 mm 0 m/s 675 mmHg 67%
22:00 +20°C° 0 mm 0 m/s 675 mmHg 68%
23:00 +19°C° 0 mm 0 m/s 675 mmHg 70%

Amanhã, 18 Abril, Domingo

Tempo Temperatura Precipitação Vento Pressão Humidade
00:00 +19°C° 0 mm 0 m/s 676 mmHg 71%
01:00 +18°C° 0 mm 0 m/s 675 mmHg 72%
02:00 +18°C° 0 mm 0 m/s 675 mmHg 74%
03:00 +17°C° 0 mm 0 m/s 675 mmHg 75%
04:00 +17°C° 0 mm 0 m/s 675 mmHg 75%
05:00 +17°C° 0 mm 0 m/s 675 mmHg 76%
06:00 +17°C° 0 mm 0 m/s 675 mmHg 76%
07:00 +19°C° 0 mm 0 m/s 676 mmHg 70%
08:00 +21°C° 0 mm 0 m/s 676 mmHg 65%
09:00 +23°C° 0 mm 0 m/s 677 mmHg 60%
10:00 +25°C° 0 mm 0 m/s 677 mmHg 55%
11:00 +26°C° 0 mm 0 m/s 677 mmHg 50%
12:00 +30°C° 0 mm 1 m/s 677 mmHg 45%
13:00 +29°C° 0 mm 1 m/s 676 mmHg 50%
14:00 +28°C° 0 mm 1 m/s 676 mmHg 55%
15:00 +26°C° 0 mm 1 m/s 675 mmHg 61%
16:00 +26°C° 0 mm 1 m/s 675 mmHg 64%
17:00 +25°C° 0 mm 1 m/s 674 mmHg 67%
18:00 +24°C° 0 mm 1 m/s 674 mmHg 71%
19:00 +23°C° 0 mm 1 m/s 674 mmHg 73%
20:00 +22°C° 0 mm 1 m/s 675 mmHg 75%
21:00 +21°C° 0 mm 1 m/s 675 mmHg 77%
22:00 +21°C° 0.1 mm 1 m/s 675 mmHg 79%
23:00 +21°C° 0.1 mm 1 m/s 675 mmHg 81%

Depois de amanhã, 19 Abril, Segunda-feira

Tempo Temperatura Precipitação Vento Pressão Humidade
00:00 +20°C° 0.1 mm 1 m/s 675 mmHg 83%
01:00 +20°C° 0.7 mm 1 m/s 675 mmHg 87%
02:00 +17°C° 0.7 mm 0 m/s 675 mmHg 91%
03:00 +17°C° 0.7 mm 0 m/s 675 mmHg 95%
04:00 +17°C° 0 mm 0 m/s 675 mmHg 94%
05:00 +16°C° 0 mm 0 m/s 675 mmHg 93%
06:00 +16°C° 0 mm 0 m/s 675 mmHg 93%
07:00 +18°C° 0 mm 0 m/s 675 mmHg 87%
08:00 +20°C° 0 mm 0 m/s 676 mmHg 82%
09:00 +21°C° 0 mm 0 m/s 677 mmHg 77%
10:00 +25°C° 0.7 mm 1 m/s 677 mmHg 70%
11:00 +26°C° 0.7 mm 1 m/s 677 mmHg 63%
12:00 +28°C° 0.7 mm 1 m/s 677 mmHg 55%
13:00 +28°C° 0 mm 1 m/s 676 mmHg 53%
14:00 +29°C° 0 mm 1 m/s 676 mmHg 51%
15:00 +29°C° 0 mm 1 m/s 675 mmHg 48%
16:00 +27°C° 0.4 mm 1 m/s 675 mmHg 58%
17:00 +25°C° 0.4 mm 2 m/s 675 mmHg 68%
18:00 +23°C° 0.4 mm 2 m/s 674 mmHg 77%
19:00 +22°C° 0.2 mm 1 m/s 675 mmHg 81%
20:00 +21°C° 0.2 mm 1 m/s 675 mmHg 84%
21:00 +20°C° 0.2 mm 1 m/s 675 mmHg 87%
22:00 +20°C° 0.5 mm 1 m/s 675 mmHg 88%
23:00 +20°C° 0.5 mm 1 m/s 675 mmHg 89%

20 Abril, Terça-feira

Tempo Temperatura Precipitação Vento Pressão Humidade
00:00 +20°C° 0.5 mm 1 m/s 675 mmHg 90%
01:00 +20°C° 0.3 mm 1 m/s 675 mmHg 90%
02:00 +20°C° 0.3 mm 1 m/s 675 mmHg 89%
03:00 +18°C° 0.3 mm 0 m/s 674 mmHg 89%
04:00 +17°C° 0.3 mm 0 m/s 674 mmHg 89%
05:00 +19°C° 0.3 mm 1 m/s 675 mmHg 89%
06:00 +19°C° 0.3 mm 1 m/s 675 mmHg 90%
07:00 +20°C° 0 mm 1 m/s 675 mmHg 88%
08:00 +21°C° 0 mm 1 m/s 676 mmHg 86%
09:00 +22°C° 0 mm 1 m/s 676 mmHg 85%
10:00 +23°C° 0.4 mm 1 m/s 676 mmHg 79%
11:00 +24°C° 0.4 mm 2 m/s 677 mmHg 73%
12:00 +25°C° 0.4 mm 2 m/s 677 mmHg 68%
13:00 +25°C° 1.1 mm 2 m/s 676 mmHg 71%
14:00 +24°C° 1.1 mm 2 m/s 675 mmHg 75%
15:00 +24°C° 1.1 mm 2 m/s 675 mmHg 78%
16:00 +23°C° 0.8 mm 2 m/s 675 mmHg 81%
17:00 +22°C° 0.8 mm 1 m/s 675 mmHg 84%
18:00 +21°C° 0.8 mm 1 m/s 675 mmHg 88%
19:00 +20°C° 0 mm 1 m/s 675 mmHg 88%
20:00 +20°C° 0 mm 1 m/s 675 mmHg 88%
21:00 +20°C° 0 mm 1 m/s 676 mmHg 89%
22:00 +20°C° 0 mm 1 m/s 676 mmHg 89%
23:00 +19°C° 0 mm 1 m/s 676 mmHg 90%

21 Abril, Quarta-feira

Tempo Temperatura Precipitação Vento Pressão Humidade
00:00 +19°C° 0 mm 1 m/s 676 mmHg 90%
01:00 +19°C° 0 mm 1 m/s 675 mmHg 91%
02:00 +19°C° 0 mm 1 m/s 675 mmHg 91%
03:00 +19°C° 0 mm 1 m/s 675 mmHg 92%
04:00 +16°C° 0 mm 0 m/s 675 mmHg 92%
05:00 +16°C° 0 mm 0 m/s 675 mmHg 92%
06:00 +16°C° 0 mm 0 m/s 675 mmHg 93%
07:00 +17°C° 0 mm 0 m/s 676 mmHg 87%
08:00 +19°C° 0 mm 0 m/s 677 mmHg 81%
09:00 +21°C° 0 mm 0 m/s 677 mmHg 76%
10:00 +22°C° 0.2 mm 0 m/s 677 mmHg 69%
11:00 +26°C° 0.2 mm 1 m/s 677 mmHg 62%
12:00 +27°C° 0.2 mm 1 m/s 677 mmHg 55%
13:00 +27°C° 0.2 mm 1 m/s 677 mmHg 57%
14:00 +26°C° 0.2 mm 1 m/s 676 mmHg 60%
15:00 +26°C° 0.2 mm 1 m/s 675 mmHg 62%
16:00 +24°C° 0.2 mm 1 m/s 675 mmHg 68%
17:00 +23°C° 0.2 mm 1 m/s 675 mmHg 73%
18:00 +21°C° 0.2 mm 1 m/s 675 mmHg 79%
19:00 +21°C° 0 mm 1 m/s 675 mmHg 80%
20:00 +21°C° 0 mm 1 m/s 675 mmHg 82%
21:00 +20°C° 0 mm 1 m/s 676 mmHg 83%
22:00 +20°C° 0 mm 1 m/s 676 mmHg 85%
23:00 +19°C° 0 mm 1 m/s 676 mmHg 86%

22 Abril, Quinta-feira

Tempo Temperatura Precipitação Vento Pressão Humidade
00:00 +19°C° 0 mm 1 m/s 676 mmHg 88%
01:00 +18°C° 0 mm 1 m/s 675 mmHg 88%
02:00 +18°C° 0 mm 1 m/s 675 mmHg 88%
03:00 +18°C° 0 mm 1 m/s 675 mmHg 88%
04:00 +16°C° 0 mm 0 m/s 675 mmHg 88%
05:00 +15°C° 0 mm 0 m/s 675 mmHg 89%
06:00 +15°C° 0 mm 0 m/s 675 mmHg 89%
07:00 +17°C° 0 mm 0 m/s 676 mmHg 83%
08:00 +19°C° 0 mm 0 m/s 677 mmHg 77%
09:00 +21°C° 0 mm 0 m/s 677 mmHg 71%
10:00 +23°C° 0 mm 0 m/s 677 mmHg 64%
11:00 +25°C° 0 mm 0 m/s 678 mmHg 57%
12:00 +28°C° 0 mm 1 m/s 678 mmHg 49%
13:00 +28°C° 0 mm 1 m/s 677 mmHg 49%
14:00 +28°C° 0 mm 1 m/s 676 mmHg 48%
15:00 +28°C° 0 mm 1 m/s 676 mmHg 48%
16:00 +24°C° 0 mm 0 m/s 675 mmHg 54%
17:00 +23°C° 0 mm 0 m/s 675 mmHg 61%
18:00 +21°C° 0 mm 0 m/s 675 mmHg 67%
19:00 +21°C° 0 mm 0 m/s 675 mmHg 68%
20:00 +20°C° 0 mm 0 m/s 675 mmHg 69%
21:00 +19°C° 0 mm 0 m/s 676 mmHg 70%
22:00 +19°C° 0 mm 0 m/s 676 mmHg 71%
23:00 +18°C° 0 mm 0 m/s 676 mmHg 73%
Mostrar mais

Necessitamos do seu Consentimento

A Meteoprog e os seus Fornecedores de Serviços podem armazenar e aceder a dados pessoais como cookies, identificadores do dispositivo ou outras tecnologias semelhantes existentes no seu dispositivo e processar estes dados para personalizar conteúdos e anúncios, assim como funcionalidades nas redes sociais e análise de tráfego.

  • Armazenar e/ou aceder a informações no seu dispositivo

    Os cookies, identificadores do dispositivo ou outras informações podem ser armazenados ou acedidos no seu dispositivo, para os fins acima indicados.

  • Anúncios e conteúdos personalizados, medição de anúncios e conteúdos, dados sobre o público-alvo e desenvolvimento de produtos

    Os anúncios e os conteúdos podem ser personalizados com base num perfil. Podem ser adicionados dados adicionais para uma maior personalização dos anúncios e dos conteúdos. A eficácia dos anúncios e dos conteúdos pode ser medida. Podem ser obtidas informações sobre o público que visualizou os anúncios e os conteúdos. Estes dados podem ser usados para desenvolver ou melhorar sistemas, softwares ou a experiência do utilizador.

Ao clicar em "Eu concordo”, permitirá o uso de cookies, identificadores do dispositivo e web beacons mencionados ou outras tecnologias semelhantes. As configurações do navegador do seu dispositivo podem ser alteradas.

Para certos fins, podem ser invocados interesses legítimos ao invés de consentimento. Pode ler mais informação sobre este assunto na nossa Política de Privacidade e Cookies.